Weather Service Report


884 
ASUS44 KLUB 310410
RWRTX 
WEST TEXAS WEATHER ROUNDUP
NATIONAL WEATHER SERVICE LUBBOCK TX
1100 PM CDT WED JUL 30 2014

NOTE: "FAIR" INDICATES FEW OR NO CLOUDS BELOW 12,000 FEET WITH NO
SIGNIFICANT WEATHER AND/OR OBSTRUCTIONS TO VISIBILITY.

TXZ004-006>008-010-012-014-016-OKZ002-310500-
TEXAS PANHANDLE/OKLAHOMA PANHANDLE
  
CITY           SKY/WX    TMP DP  RH WIND       PRES   REMARKS
AMARILLO       CLOUDY    64  61  90 N17       30.23R                  
BORGER         CLOUDY    66  61  84 NE14      30.22R                  
CANADIAN       DRIZZLE   67  64  89 NE13G22   30.16S                  
DALHART        CLOUDY    65  58  78 NE17      30.27R                  
DUMAS          CLOUDY    63  58  84 N13G20    30.25R                  
GUYMON         PTCLDY    61  59  93 N5        30.23R                  
HEREFORD       MOCLDY    65  61  87 NE21      30.22R                  
PAMPA          CLOUDY    63  60  93 NE12G22   30.22R                  
PERRYTON       CLEAR     63  60  91 NE8       30.21R                  
$$

TXZ026-029-035-045-048-310500-
SOUTHERN PANHANDLE/SOUTH PLAINS/ROLLING PLAINS
  
CITY           SKY/WX    TMP DP  RH WIND       PRES   REMARKS
CHILDRESS      CLOUDY    71  64  78 NE18G31   30.11R                  
SEMINOLE       CLOUDY    77  60  56 NE17G29   30.11R                  
LUBBOCK        CLOUDY    70  62  76 NE20G30   30.13R                  
PLAINVIEW      MOCLDY    67  63  85 NE14G22   30.16R                  
SNYDER         CLOUDY    82  68  63 NE13G20   30.05R                  
$$

TXZ052-054-060>062-072-078-127-140-154-169-310500-
PERMIAN BASIN/CONCHO VALLEY/BIG COUNTRY/EDWARDS PLATEAU  
  
CITY           SKY/WX    TMP DP  RH WIND       PRES   REMARKS
ABILENE        CLOUDY    81  68  64 W7        30.00R                  
BIG SPRING     CLOUDY    80  67  66 SE8       30.06R                  
BRADY          CLEAR     86  57  37 SE10      29.96R                  
BROWNWOOD      CLOUDY    86  54  32 SE8       29.94R                  
JUNCTION       CLEAR     85  51  31 S5        29.96R                  
MIDLAND        CLOUDY    78  67  68 W8        30.04S                  
ODESSA           N/A     75  65  70 SW5       30.06R                  
SAN ANGELO     MOCLDY    91  53  27 VRB5      29.97R                  
SONORA         CLEAR     88  48  25 S9        30.01R                  
SWEETWATER     MOCLDY    76  68  75 N6        30.07R                  
WINK           CLOUDY    78  68  71 N9        30.03R                  
$$

TXZ055-058-074-075-080-082-310500-
FAR WEST/SOUTHWEST MOUNTAINS/TRANS PECOS
  
CITY           SKY/WX    TMP DP  RH WIND       PRES   REMARKS
ALPINE         CLOUDY    77  56  48 E16       30.24R                  
DRYDEN           N/A     96  47  18 E13G22    29.92R                  
EL PASO        CLOUDY    82  60  47 W6        30.05F                  
FORT STOCKTON  CLOUDY    83  60  45 NE6       30.07R                  
GUADALUPE PASS LGT RAIN  70  62  76 NE25      30.22R                  
MARFA          CLOUDY    75  52  43 E8        30.19R                  
PECOS          DRIZZLE   81  58  46 SW7G14    29.99S                  
PRESIDIO       FAIR      92  55  28 N9        29.96R                  
$$

TXZ014-016-019-021>030-083-310500
TEXAS TECH WEST TEXAS MESONET/TEXAS PANHANDLE/NORTHERN SOUTH PLAINS
  
CITY           SKY/WX    TMP DP  RH WIND       PRES   REMARKS
ABERNATHY 5ENE   N/A     69  61  77 N17       30.16R                  
AMARILLO 9NNE    N/A     65  61  88 N12       30.22S                  
AMARILLO 7SSE    N/A     64  60  88 N16       30.23S                  
AMHERST 1NE      N/A     67  60  78 N15       30.19R                  
BOOTLEG 11WNW    N/A     63  58  84 NE16      30.28R                  
CANADIAN 6E      N/A     65  62  91 N12       30.16R                  
CAPROCK CYN SP   N/A     68  63  83 N8        30.15R                  
CHILDRESS 2NNE   N/A     69  65  87 N20       30.09R                  
CLARENDON 2WSW   N/A     64  60  85 N17       30.16S                  
CLAUDE 12SW      N/A     63  61  93 NE15      30.21R                  
DIMMITT 2NE      N/A     64  60  87 NE18      30.21R                  
FLOYDADA 2NNE    N/A     69  62  78 N16       30.15R                  
FRIONA 2NE       N/A     65  60  83 NE14      30.23R                  
GOODLETT 3W      N/A     71  65  81 N13       30.07R                  
HART 3N          N/A     66  60  80 N16       30.21R                  
HEREFORD 2NW     N/A     64  58  82 NE17      30.22R                  
MCLEAN 1E        N/A     64  62  92 N10       30.15S                  
MEMPHIS 1NE      N/A     68  63  82 N17       30.12R                  
MULESHOE 2SSW    N/A     67  59  73 NE14      30.22R                  
OLTON 6S         N/A     67  60  78 N16       30.17R                  
PALO DURO SP     N/A     65  60  85 N13       30.22S                  
PAMPA 2E         N/A     63  61  94 N12       30.20R                  
PLAINVIEW 1S     N/A     67  62  86 N13       30.17R                  
SILVERTON 7ESE   N/A     66  61  84 N16       30.18R                  
TULIA 2ENE       N/A     65  61  87 N17       30.19R                  
TURKEY 2WSW      N/A     70  62  75 N17       30.13R                  
UMBARGER 3NNE    N/A     64  60  87 NE17      30.23S                  
$$

TXZ033>036-039>041-045>048-310500
TEXAS TECH WEST TEXAS MESONET/SOUTH PLAINS  
  
CITY           SKY/WX    TMP DP  RH WIND       PRES   REMARKS
AIKEN 3WSW       N/A     67  63  85 N18       30.17S                  
ANDREWS 2NE      N/A     82  62  50 NE21      30.07R                  
ANTON 6SSW       N/A     69  62  77 N20       30.15R                  
BROWNFIELD 2S    N/A     72  59  64 NE17      30.12R                  
DENVR CTY 7WNW   N/A     71  57  60 N17G28    30.13R                  
GAIL 2ESE        N/A     81  62  52 N18       30.05R                  
LAMESA 2SE       N/A     78  62  56 N18G29    30.08R                  
LEVELLAND 4S     N/A     68  61  76 N16       30.15S                  
LUBBOCK 3WNW     N/A     70  61  72 N13       30.14R                  
MORTON 1ENE      N/A     67  61  78 N16       30.18R                  
ODONNELL 1N      N/A     75  59  56 N20       30.10R                  
PLAINS 3N        N/A     70  59  69 N16       30.15R                  
RALLS 1SE        N/A     70  62  75 NE18      30.14R                  
REESE CENTER     N/A     69  61  76 NE18      30.14R                  
SEAGRAVES 1SW    N/A     74  59  61 N16       30.12R                  
SEMINOLE 2NNE    N/A     76  59  56 NE23      30.10R                  
SLATON 2NE       N/A     71  62  73 N16       30.13R                  
SNYDER 3E        N/A     80  68  67 NE10      30.05R                  
SUNDOWN 8SW      N/A     69  60  72 N18       30.14S                  
TAHOKA 3NNE      N/A     72  59  64 N15       30.11R                  
WOLFFORTH 6SSW   N/A     71  61  71 N22       30.13R                  
$$

TXZ031-032-036>038-042>044-310500-
TEXAS TECH WEST TEXAS MESONET/ROLLING PLAINS 
  
CITY           SKY/WX    TMP DP  RH WIND       PRES   REMARKS
ASPERMONT 3NE    N/A     79  71  78 NE8       30.02R                  
FLUVANNA 3WNW    N/A     78  61  55 N20       30.07R                  
GRAHAM 5SSW      N/A     75  60  60 N22       30.09R                  
GUTHRIE 10WSW    N/A     75  65  70 N21       30.05R                  
HASKELL 1NW      N/A     78  67  68 N16       30.00R                  
JAYTON 1SSE      N/A     80  64  56 N13       30.04R                  
KNOX CITY 3NW    N/A     76  64  66 N20       30.03R                  
LK A HENRY 1NW   N/A     77  63  61 NE15      30.06R                  
NORTHFIELD 1S    N/A     71  64  77 N15G25    30.11R                  
ODELL 4ENE       N/A     70  65  85 N17       30.06R                  
PADUCAH 10SW     N/A     71  64  76 N20       30.08R                  
POST 1NE         N/A     76  61  59 N15       30.09R                  
RRING SPRGS 3N   N/A     70  64  80 N16       30.12R                  
SEYMOUR 3NW      N/A     74  66  75 N14       30.00R                  
SPUR 1W          N/A     73  64  71 N22G32    30.06S                  
WEINERT 2NNE     N/A     75  70  83 N18       30.02R                  
WHITE RVR 6NE    N/A     72  63  72 N21       30.09R                  
$$

TXZ052-054-060>062-072-078-127-140-154-169-310500-
TEXAS TECH WEST TEXAS MESONET/PERMIAN BASIN/
CONCHO VALLEY/BIG COUNTRY/EDWARDS PLATEAU
  
CITY           SKY/WX    TMP DP  RH WIND       PRES   REMARKS
COYANOSA 2N      N/A     78  68  71 E9        30.01R                  
JUNCTION 1SSW    N/A     85  53  33 S5        29.97R                  
MERTZON 3NNE     N/A     91  52  26 S5        30.00R                  
SAN ANGELO 7NW   N/A     88  54  30 SE9       29.98R                  
STRLNG CT 4WSW   N/A     80  67  64 CALM      30.03R                  
ST LAWRNCE 5SW   N/A     76  63  63 W17       30.07R                  
SWEETWATR 11SW   N/A     75  67  75 NE10      30.05R                  
WALL 1E          N/A     86  53  31 N2        29.99R                  
$$

TXZ055-058-074-075-080-082-310500-
TEXAS TECH WEST TEXAS MESONET/FAR WEST/SOUTHWEST MOUNTAINS/TRANS PECOS
  
CITY           SKY/WX    TMP DP  RH WIND       PRES   REMARKS
PRSMN GAP BBNP   N/A     83  62  48 N26       30.00R                  
GUADLPE MTN NP   N/A     68  62  79 N7        30.25R                  
$$

Return to Home page


Western Regional Climate Center, wrcc@dri.edu